Regional Weather Roundup
Issued by NWS

Home | Current Version | Previous Version | Graphics & Text | Print | Product List | Glossary Off
Versions: 1 2 3 4 5 6 7 8 9 10 11 12 13 14 15 16 17 18 19 20 21 22 23 24 25 26 27 28 29 30 31 32 33 34 35 36 37 38 39 40 41 42 43 44 45 46 47 48 49 50

000
ASUS43 KMPX 251801
RWRMN
WEATHER ROUNDUP FOR MINNESOTA
NATIONAL WEATHER SERVICE TWIN CITIES/CHANHASSEN MN
100 PM CDT MON JUL 25 2016


NOTE: "FAIR" INDICATES FEW OR NO CLOUDS BELOW 12,000 FEET WITH NO
SIGNIFICANT WEATHER AND/OR OBSTRUCTIONS TO VISIBILITY. N/A MEANS
CURRENT SKY AND/OR WEATHER CONDITIONS ARE NOT AVAILABLE.

MNZ060>063-068>070-251900-
   Twin Cities Metro

CITY           SKY/WX    TMP DP  RH WIND       PRES   REMARKS
TWIN CITIES    SUNNY     84  59  42 W8        30.06S
6HR MIN TEMP:  68; 6HR MAX TEMP:  84;

ST PAUL        SUNNY     83  60  45 NW10      30.05F
CRYSTAL        SUNNY     82  57  42 NW6       30.05S
LAKEVILLE      SUNNY     81  63  54 W3        30.08R
EDEN PRAIRIE   SUNNY     84  59  42 NW7       30.06S
6HR MIN TEMP:  66; 6HR MAX TEMP:  84;

LAKEVILLE      SUNNY     81  63  54 W3        30.08R
SOUTH ST PAUL  SUNNY     83  57  40 NW6       30.06S
LAKE ELMO      FAIR      81  63  54 NW6       30.07S
$$
MNZ001>005-007-008-013>017-022>024-027-028-251900-
   Northwest Minnesota

CITY           SKY/WX    TMP DP  RH WIND       PRES   REMARKS
BEMIDJI        SUNNY     79  59  50 W8        30.04F
HALLOCK        SUNNY     79  63  57 SW3       29.98F
ROSEAU         SUNNY     79  66  65 W9        29.99F
WARROAD        SUNNY     79  64  61 W9        30.00S
THIEF RVR FALL SUNNY     78  62  57 VRB7      30.02F
CROOKSTON      SUNNY     81  61  50 SW7       30.01F
FOSSTON        SUNNY     79  63  57 SW9       30.04F
DETROIT LAKES  SUNNY     79  59  50 W6        30.07S
MOORHEAD       SUNNY     82  63  51 S8        30.03S
PARK RAPIDS    SUNNY     80  59  48 W7        30.05F
MAHNOMEN       FAIR      79  60  51 W7        30.04F
$$
MNZ006-009>011-018-025>026-251900-
   North Central Minnesota

CITY           SKY/WX    TMP DP  RH WIND       PRES   REMARKS
BAUDETTE       MOSUNNY   80  61  52 W12       29.99F
FLAG ISLAND    SUNNY     77  55  47 NW12G18   29.96F
INTL FALLS     MOSUNNY   79  60  52 W9        29.99F
6HR MIN TEMP:  61; 6HR MAX TEMP:  79;

WASKISH        SUNNY     79  64  61 SW12      30.01F
BIG FORK       MOSUNNY   79  59  50 W3        30.02S
LONGVILLE      MOSUNNY   81  63  54 SW7       30.04F
GRAND RAPIDS   SUNNY     78  61  55 W8        30.05F
ORR            PTSUNNY   75  57  53 NW6       29.99S
COOK           MOSUNNY   77  57  50 W12       30.02S
WALKER         FAIR      78  60  53 W9        30.04F
$$
MNZ012-019>021-037-251900-
   Northeast Minnesota

CITY           SKY/WX    TMP DP  RH WIND       PRES   REMARKS
DULUTH         MOSUNNY   79  59  50 W14       30.02F
6HR MIN TEMP:  64; 6HR MAX TEMP:  79;

ELY            SUNNY     75  57  53 NW9G17    30.00F
HIBBING        MOSUNNY   76  59  55 NW12      30.02F
EVELETH        MOSUNNY   78  56  46 NW7       30.03F
DULUTH HARBOR  SUNNY     81  63  54 W8        30.00F
TWO HARBORS    SUNNY     81  63  54 NW10      29.98F
SILVER BAY     SUNNY     81  59  47 W6        29.97F
GRAND MARAIS     N/A     71  49  45 SW12      29.92F
G MARAIS ARPRT SUNNY     73  54  49 W10G18    29.99F
$$
MNZ029>031-032-039>041-046>048-054>057-064-251900-
   West Central Minnesota

CITY           SKY/WX    TMP DP  RH WIND       PRES   REMARKS
FERGUS FALLS   SUNNY     81  61  50 SW6       30.06F
WHEATON        SUNNY     84  70  61 S8        30.06F
MORRIS         SUNNY     84  63  48 SW7       30.07S
ALEXANDRIA     SUNNY     82  59  45 W10       30.10S
ELBOW LAKE     FAIR      80  64  58 S6        30.07F
WADENA         SUNNY     79  61  53 NW8       30.07S
GLENWOOD       SUNNY     81  63  54 SW7       30.10S
APPLETON       SUNNY     84  59  42 S6        30.07F
BENSON         SUNNY     82  61  47 W7        30.08F
ORTONVILLE     SUNNY     84  64  51 S5        30.07S
MADISON        SUNNY     82  64  54 S3        30.08S
WILLMAR        FAIR      81  64  57 NW3       30.11S
$$
MNZ033>034-036-042>043-049>051-058-059-251900-
   Central Minnesota

CITY           SKY/WX    TMP DP  RH WIND       PRES   REMARKS
ST CLOUD       SUNNY     82  62  50 NW5       30.06S
6HR MIN TEMP:  62; 6HR MAX TEMP:  82;

SAUK CENTRE    FAIR      81  61  51 W9        30.08F
PAYNESVILLE    SUNNY     80  61  52 W8        30.09S
AITKIN         SUNNY     81  55  41 W8        30.04S
PINE RIVER     SUNNY     81  61  50 NW6       30.08S
BRAINERD       SUNNY     80  60  50 W13       30.06S
STAPLES        SUNNY     81  57  44 NW7       30.07S
LONG PRAIRIE   FAIR      81  61  50 SW5       30.08F
LITTLE FALLS   SUNNY     79  55  44 W6        30.07F
LITCHFIELD     SUNNY     82  63  51 W6        30.09S
BUFFALO        SUNNY     80  60  50 W3        30.08S
MAPLE LAKE     SUNNY     82  63  53 W6        30.08S
HUTCHINSON     SUNNY     81  66  60 SW8       30.10S
$$
MNZ037-044-045-052-053-251900-
   East Central Minnesota

CITY           SKY/WX    TMP DP  RH WIND       PRES   REMARKS
PRINCETON      SUNNY     82  61  47 W7        30.06S
MORA           SUNNY     79  57  47 NW5       30.07R
CAMBRIDGE      SUNNY     82  63  51 W8        30.04S
RUSH CITY      SUNNY     81  64  57 W6        30.05S
MOOSE LAKE     MOSUNNY   79  61  53 NW6       30.02S
HINCKLEY       FAIR      79  63  57 W3        30.04F
CLOQUET        MOSUNNY   79  55  44 W9G18     30.03S
MCGREGOR       SUNNY     79  61  53 W7        30.04S
$$
MNZ071>073-080-081-089-090-097-098-251900-
   Southwest Minnesota

CITY           SKY/WX    TMP DP  RH WIND       PRES   REMARKS
MONTEVIDEO     SUNNY     84  64  51 W7        30.10F
GRANITE FALLS  SUNNY     82  62  49 W3        30.11S
CANBY          SUNNY     84  58  41 SW9       30.10F
MARSHALL       SUNNY     82  63  52 W6        30.10F
REDWOOD FALLS  SUNNY     83  59  44 CALM      30.09S
OLIVIA         SUNNY     79  61  53 NW5       30.09S
PIPESTONE      SUNNY     81  61  50 SW8       30.14S
WINDOM         SUNNY     82  61  47 S6        30.12S
WORTHINGTON    SUNNY     81  63  54 VRB6      30.14S
JACKSON        SUNNY     81  59  47 CALM      30.13F
SLAYTON        SUNNY     82  61  49 SW7       30.14S
$$
MNZ065>067-074>077-082>085-091>093-251900-
   South Central Minnesota

CITY           SKY/WX    TMP DP  RH WIND       PRES   REMARKS
MANKATO        SUNNY     81  61  50 CALM      30.09F
NEW ULM        SUNNY     81  61  50 W3        30.09S
ST JAMES       SUNNY     77  57  50 CALM      30.11S
FAIRMONT       SUNNY     81  61  50 CALM      30.11S
GLENCOE        SUNNY     82  63  53 NW3       30.08S
FARIBAULT      SUNNY     81  63  54 CALM      30.09S
OWATONNA       SUNNY     81  61  50 NW3       30.09F
WASECA         SUNNY     77  61  57 NW5       30.11F
ALBERT LEA     SUNNY     81  61  50 NW5       30.10F
$$
MNZ078>079-086>088-094>096-251900-
   Southeast Minnesota

CITY           SKY/WX    TMP DP  RH WIND       PRES   REMARKS
ROCHESTER      SUNNY     80  63  55 NW7       30.10S
6HR MIN TEMP:  64; 6HR MAX TEMP:  80;

RED WING       MOSUNNY   82  61  47 CALM      30.04F
STANTON        SUNNY     81  61  50 CALM      30.07S
DODGE CENTER   SUNNY     81  61  50 N8        30.10S
WINONA         SUNNY     81  61  50 NW6       30.05F
AUSTIN         SUNNY     81  61  50 NW8       30.10S
PRESTON        MOSUNNY   78  62  57 NW9       30.10S
$$
ABBREVIATIONS USED IN REMARKS
   TC - TEMPERATURES IN CELSIUS
  WCI - WIND CHILL INDEX
   HX - HEAT INDEX
  VSB - VISIBILITY
$$



USA.gov is the U.S. government's official web portal to all federal, state and local government web resources and services.